Location: Las Callecitas
(9.8750°N, 67.4611°W)
Time: 02:43:03
(UTC+00:00)

ARIANE 5 R/B - Pass Details

Date: 14 April 2024
Orbit: 497 x 17445 km, 6.8° (Epoch: 19 May)

Event Time Altitude Azimuth Distance (km) Brightness Sun altitude
Rises 07:43:17 0° 269° (W) 17,236 8.4 -38.1°
Enters shadow 07:49:24 - 269° (W) 16,145 8.3 -36.7°
Exits shadow 08:32:37 34° 264° (W) 4,653 5.4 -26.6°
Maximum altitude 08:41:24 75° 186° (S) 1,806 3.7 -24.5°
Drops below altitude 10° 08:47:13 10° 101° (E) 2,620 5.6 -23.1°
Sets 08:48:46 0° 99° (E) 3,228 6.4 -22.8°
